Hollywood, FL

3:27 PM EST on February 21, 2017 (GMT -0500)
North Perry

Weather History for KHWO - May, 2013

Change the Weather History Date:

Sunday, May 5, 2013

  Actual Average (KFLL) Record (KFLL)
Temperature  
Mean Temperature 76 °F -  
Max Temperature 82 °F 85 °F 91 °F (2002)
Min Temperature 69 °F 69 °F 49 °F (1921)
Cooling Degree Days 10    
Growing Degree Days 26 (Base 50)    
Moisture  
Dew Point 62 °F    
Average Humidity 70    
Maximum Humidity 90    
Minimum Humidity 45    
Precipitation  
Precipitation 0.00 in - - ()
Sea Level Pressure  
Sea Level Pressure 29.87 in    
Wind  
Wind Speed 9 mph (WNW)    
Max Wind Speed 17 mph    
Max Gust Speed 21 mph    
Visibility 10 miles    
Events      
Averages and records for this station are not official NWS values.
T = Trace of Precipitation, MM = Missing Value Source: NWS Daily Summary

Daily Weather History Graph

Daily Weather History Graph

Search for Another Location

Airport or City:

Trip Planner

Search our weather history database for the weather conditions in past years. The results will help you decide how hot, cold, wet, or windy it might be!

Date:

Astronomy

May. 05, 2013 Rise Set
Actual Time 6:40 AM EDT 7:54 PM EDT
Civil Twilight 6:16 AM EDT 8:19 PM EDT
Nautical Twilight 5:47 AM EDT 8:48 PM EDT
Astronomical Twilight 5:17 AM EDT 9:18 PM EDT
Moon 3:45 AM EDT (5/5) 4:14 PM EDT (5/5)
Length of Visible Light 14h 02m
Length of Day
13h 13m
Waning Crescent, 18% of the Moon is Illuminated
May 5
Waning Crescent
May 9
New
May 18
First Quarter
May 25
Full
May 31
Last Quarter

Hourly Weather History & Observations

Time (EDT) Temp. Heat Index Dew Point Humidity Pressure Visibility Wind Dir Wind Speed Gust Speed Precip Events Conditions
12:53 AM 72.0 °F - 64.0 °F 76% 29.83 in 10.0 mi West 11.5 mph - N/A   Clear
1:53 AM 70.0 °F - 64.9 °F 84% 29.82 in 10.0 mi West 8.1 mph - N/A   Clear
2:53 AM 70.0 °F - 64.9 °F 84% 29.80 in 10.0 mi WNW 8.1 mph - N/A   Clear
3:53 AM 69.1 °F - 64.9 °F 87% 29.80 in 10.0 mi West 8.1 mph - N/A   Clear
4:53 AM 69.1 °F - 66.0 °F 90% 29.81 in 10.0 mi West 5.8 mph - N/A   Mostly Cloudy
5:33 AM 69.8 °F - 66.2 °F 88% 29.82 in 10.0 mi West 11.5 mph - N/A   Overcast
5:40 AM 69.8 °F - 66.2 °F 88% 29.82 in 10.0 mi West 10.4 mph - N/A   Overcast
5:53 AM 70.0 °F - 66.0 °F 87% 29.83 in 10.0 mi WNW 10.4 mph - N/A   Overcast
6:16 AM 69.8 °F - 66.2 °F 88% 29.83 in 10.0 mi WNW 9.2 mph - N/A   Mostly Cloudy
6:53 AM 69.1 °F - 66.0 °F 90% 29.85 in 10.0 mi West 11.5 mph - N/A   Mostly Cloudy
7:00 AM 69.8 °F - 66.2 °F 88% 29.85 in 10.0 mi WNW 9.2 mph - N/A   Mostly Cloudy
7:53 AM 70.0 °F - 66.0 °F 87% 29.88 in 10.0 mi WNW 10.4 mph - N/A   Overcast
8:34 AM 71.6 °F - 66.2 °F 83% 29.88 in 10.0 mi NW 8.1 mph - N/A   Mostly Cloudy
8:37 AM 71.6 °F - 64.4 °F 78% 29.88 in 10.0 mi WNW 10.4 mph - N/A   Overcast
8:53 AM 70.0 °F - 64.0 °F 81% 29.89 in 10.0 mi WNW 17.3 mph 20.7 mph N/A   Mostly Cloudy
9:04 AM 71.6 °F - 64.4 °F 78% 29.90 in 10.0 mi NW 12.7 mph - N/A   Scattered Clouds
9:53 AM 73.9 °F - 64.0 °F 71% 29.91 in 10.0 mi NW 12.7 mph - N/A   Overcast
10:28 AM 75.2 °F - 64.4 °F 69% 29.91 in 10.0 mi NNW 11.5 mph - N/A   Mostly Cloudy
10:53 AM 75.0 °F - 62.1 °F 64% 29.92 in 10.0 mi WNW 15.0 mph - N/A   Scattered Clouds
11:53 AM 79.0 °F - 62.1 °F 56% 29.92 in 10.0 mi NNW 11.5 mph 20.7 mph N/A   Scattered Clouds
12:53 PM 79.0 °F - 61.0 °F 54% 29.90 in 10.0 mi WNW 8.1 mph 16.1 mph N/A   Scattered Clouds
2:53 PM 81.0 °F 81.3 °F 59.0 °F 47% 29.88 in 10.0 mi West 9.2 mph - N/A   Partly Cloudy
3:53 PM 81.0 °F 81.3 °F 59.0 °F 47% 29.87 in 10.0 mi Variable 4.6 mph - N/A   Clear
4:53 PM 82.0 °F 82.4 °F 60.1 °F 47% 29.87 in 10.0 mi West 9.2 mph - N/A   Clear
5:53 PM 81.0 °F 81.1 °F 57.9 °F 45% 29.87 in 10.0 mi North 9.2 mph - N/A   Clear
6:53 PM 80.1 °F 80.4 °F 57.0 °F 45% 29.88 in 10.0 mi NNW 10.4 mph - N/A   Clear
7:53 PM 77.0 °F - 55.0 °F 47% 29.91 in 10.0 mi North 6.9 mph - N/A   Clear
8:53 PM 73.9 °F - 54.0 °F 50% 29.93 in 10.0 mi North 5.8 mph - N/A   Clear
9:53 PM 73.0 °F - 54.0 °F 51% 29.95 in 10.0 mi North 3.5 mph - N/A   Clear
10:53 PM 72.0 °F - 54.0 °F 53% 29.95 in 10.0 mi Calm Calm - N/A   Clear
11:53 PM 69.1 °F - 57.0 °F 65% 29.96 in 10.0 mi Calm Calm - N/A   Clear